Location: Castelbiague
(43.0361°N, 0.9246°E)
Time: 15:15:24
(UTC+00:00)

Cosmos 1626 - Pass Details

Date: 25 October 2021
Orbit: 487 x 492 km, 82.5° (Epoch: 30 November)

Event Time Altitude Azimuth Distance (km) Brightness Sun altitude
Exits shadow 04:55:08 36° 262° (W) 793 2.6 -16.5°
Maximum altitude 04:55:38 38° 282° (WNW) 764 2.5 -16.4°
Drops below altitude 10° 04:59:08 10° 353° (N) 1,697 4.7 -15.8°
Sets 05:01:21 0° 1° (N) 2,585 5.7 -15.4°
